Wind_Speed
7 8 6 4 4 4 4 7 9 10 12 15 16 17 18 21 21 20 20 19 18 17 17 17 17 17 16 15 14 12 11 9 9 8 7 7 7 7 8 8 8 8 8 9 11 12 12 12 12 12 12 12 13 13 12 12 11 11 11 11 12 11 10 10 11 12 12 10 9 10 11 10 9 10 9 9 9 9 11 12 12 10 11 12 12
7 8 7 5 3 2 3 6 8 9 11 13 15 16 18 21 22 21 21 20 20 19 19 19 19 18 18 16 15 13 11 10 9 8 8 7 7 7 7 8 8 8 7 8 10 11 11 11 11 11 11 12 12 12 13 12 12 12 12 12 13 12 11 11 12 12 12 11 11 11 11 10 10 10 9 9 10 11 12 13 12 11 11 12 12
7 6 6 6 4 2 2 6 9 11 12 15 16 16 16 20 22 21 21 21 21 21 20 19 19 18 17 15 14 12 11 10 9 9 8 8 7 7 7 7 7 7 7 7 8 9 10 10 10 10 11 11 11 11 13 13 12 12 13 13 13 12 11 11 12 12 11 13 14 13 12 12 11 11 11 11 11 12 13 13 12 12 12 13 13
7 5 4 5 5 4 3 5 9 11 13 15 15 14 15 19 21 21 22 22 22 22 21 19 18 17 16 15 13 11 10 10 9 9 9 9 8 7 7 6 6 6 6 6 7 8 9 9 9 10 10 10 10 11 12 12 12 12 14 14 14 12 11 10 11 12 11 13 16 15 13 13 13 13 12 12 12 12 13 13 13 12 13 13 13
9 6 4 5 6 6 5 4 7 11 14 16 16 15 15 18 22 22 23 23 23 22 21 18 16 15 14 13 12 12 12 12 11 10 9 9 8 7 6 6 6 6 5 5 6 7 8 9 9 9 9 9 9 10 11 12 12 13 14 14 14 13 11 10 11 11 11 13 16 16 15 14 14 13 12 12 12 12 12 12 13 13 13 13 12
10 8 6 5 6 6 6 4 6 10 14 16 17 17 17 19 22 22 22 23 22 22 20 18 16 15 15 15 15 15 15 14 12 10 9 9 9 8 7 6 6 5 5 4 5 6 7 8 8 8 8 7 8 8 10 12 12 13 13 14 14 13 12 11 11 10 11 13 14 14 14 13 13 13 12 12 11 11 11 13 13 14 13 13 12
11 10 7 6 5 4 4 4 6 11 16 18 17 16 16 19 22 21 21 21 21 20 19 18 16 16 17 17 17 16 15 13 11 10 9 10 10 8 7 7 6 5 4 4 4 5 6 7 8 8 7 7 7 8 9 11 12 12 13 13 14 14 13 12 11 10 10 11 12 13 13 13 13 13 12 12 11 10 12 13 14 14 13 13 12
11 11 9 6 6 5 4 4 6 10 15 18 17 16 15 18 21 22 21 20 19 19 18 17 17 17 18 17 16 15 13 11 10 10 10 11 10 9 8 7 7 5 4 4 4 5 6 7 8 8 7 6 6 7 8 10 11 11 12 13 14 14 14 13 11 10 9 9 10 11 12 13 13 13 12 12 11 11 12 12 13 13 13 13 13
12 11 10 8 7 7 4 3 4 7 11 16 17 16 16 18 21 22 20 19 19 18 17 17 17 18 17 16 15 14 12 11 11 11 11 11 10 9 8 8 7 6 5 5 5 6 6 6 7 7 7 6 6 6 8 9 9 10 11 12 14 14 13 12 11 10 9 8 9 9 10 11 12 12 12 13 13 12 12 12 12 12 13 13 12
12 11 12 10 8 7 5 3 3 5 9 14 16 16 16 17 20 21 19 18 18 18 18 17 17 16 16 15 14 12 12 12 13 12 12 11 10 9 8 8 7 7 6 6 6 6 6 6 6 7 7 6 6 6 7 8 8 8 9 11 12 12 12 11 11 10 9 8 8 9 9 10 11 12 12 12 12 12 12 11 11 11 12 12 12
11 12 12 10 9 7 5 3 4 6 8 12 14 15 15 16 18 20 19 18 18 18 18 18 17 16 15 14 13 12 12 13 14 13 12 11 10 9 9 8 8 8 7 7 7 7 7 7 6 6 6 6 5 5 6 8 8 8 8 8 9 10 11 10 10 10 9 8 9 9 9 10 11 12 12 12 12 11 11 11 11 11 11 11 10
11 12 12 11 10 8 6 5 6 7 9 11 13 14 15 17 18 19 18 17 17 17 17 17 17 16 15 13 12 12 13 14 14 13 12 10 9 9 9 9 8 9 8 8 7 8 8 8 8 7 7 6 5 5 6 6 7 7 7 7 7 8 9 9 9 9 9 9 9 10 10 10 11 11 11 11 11 11 11 12 12 12 11 11 10
10 10 11 11 12 10 8 7 7 8 10 12 14 15 16 17 18 18 17 16 16 16 17 17 17 17 15 13 12 12 14 15 14 13 11 10 10 10 10 10 9 9 9 8 8 8 9 9 9 9 9 8 7 6 6 6 7 7 7 6 6 6 6 7 7 8 8 9 9 10 10 10 11 11 11 11 10 10 10 10 11 11 11 11 10
11 10 12 14 14 11 9 8 8 9 10 13 14 16 17 18 18 17 16 17 17 17 18 18 18 17 16 14 13 13 14 15 15 13 12 11 11 11 11 10 10 10 9 8 8 7 7 8 8 8 9 9 9 9 8 8 8 7 7 7 6 5 5 5 6 6 7 7 8 9 9 9 10 11 11 11 10 10 10 10 10 10 10 10 10
14 14 14 15 14 11 11 10 8 9 12 13 14 16 18 18 18 17 17 18 18 19 19 19 19 18 17 15 15 15 15 16 15 13 12 12 12 12 11 11 10 10 9 8 7 5 5 5 5 6 6 7 8 9 9 9 9 9 8 8 7 6 5 5 5 5 6 6 6 6 6 6 7 8 9 9 9 9 10 10 10 10 9 8 8
15 14 14 14 13 12 12 10 9 10 12 14 14 16 17 18 19 18 18 20 20 20 21 21 20 19 17 17 16 17 17 16 15 13 12 13 12 11 12 11 11 11 9 7 6 4 3 2 2 3 4 5 7 8 9 9 10 10 10 10 8 7 6 5 5 5 5 5 4 4 3 3 4 5 6 6 6 6 7 8 8 9 9 9 8
17 14 14 13 12 13 13 12 11 12 13 14 14 15 16 18 20 20 20 21 22 22 22 22 21 19 18 17 17 18 18 17 16 14 13 14 13 12 11 11 11 11 9 7 6 4 3 1 1 2 3 5 6 8 9 9 9 10 10 11 10 9 7 6 5 5 5 4 4 3 3 3 3 3 4 4 4 5 6 7 8 8 9 9 10
18 16 16 14 12 13 13 13 13 13 14 15 15 16 18 19 21 20 20 21 22 22 23 23 22 21 19 18 18 19 19 19 17 15 14 14 14 13 12 12 11 11 10 8 6 5 4 3 3 4 5 6 7 8 9 10 10 10 10 11 11 10 9 8 6 5 5 5 4 4 4 4 4 4 4 4 5 6 7 7 8 9 9 10 11
19 19 20 16 14 13 13 14 14 14 15 16 15 17 18 19 20 20 19 21 22 22 22 22 22 21 20 20 20 21 20 19 17 15 15 16 15 14 13 12 11 10 9 8 6 5 5 5 5 6 7 8 9 9 11 11 12 12 11 11 11 11 10 10 8 7 6 6 6 5 5 5 5 6 6 6 7 7 8 9 9 10 10 11 11
22 23 21 17 15 13 14 16 15 14 15 15 15 16 16 17 18 19 19 19 20 20 20 20 20 20 20 20 21 21 20 18 17 16 17 17 17 15 14 12 10 10 9 8 7 7 7 8 8 9 9 10 11 11 12 13 13 13 13 13 12 11 11 11 10 9 8 7 7 7 7 6 7 7 7 8 8 9 9 10 11 12 12 12 12
25 25 22 18 16 15 16 17 17 16 15 14 15 16 16 16 16 17 18 17 17 17 17 17 17 18 19 20 20 20 20 18 17 17 17 17 17 15 14 13 11 10 10 9 9 9 10 10 10 11 11 12 12 12 13 14 14 15 14 14 14 13 12 12 12 11 10 9 9 8 8 8 8 9 9 9 10 10 11 11 12 13 13 13 12
26 25 22 19 17 17 19 20 19 17 16 14 14 15 16 15 16 16 17 16 17 17 16 17 17 18 19 20 21 21 20 20 19 18 18 18 17 16 15 14 13 12 11 11 11 11 12 12 12 12 12 13 13 13 14 14 15 15 15 15 15 15 14 13 13 13 12 11 10 10 9 9 9 10 11 11 12 12 13 13 13 13 13 13 13
26 24 22 20 18 19 22 22 19 17 16 15 14 14 15 15 16 17 16 16 17 17 18 18 18 18 20 21 21 21 21 21 20 19 19 19 18 17 16 15 14 14 13 13 12 12 12 12 12 12 12 12 13 14 14 14 15 15 15 15 15 15 15 15 14 14 13 12 11 11 10 10 10 11 11 13 13 14 14 14 14 14 14 14 13
26 24 21 20 20 22 24 22 19 17 15 15 14 14 15 16 17 17 17 17 17 17 18 18 19 20 20 20 21 21 21 21 21 21 20 19 18 18 17 16 15 14 13 13 12 11 11 10 11 11 11 12 13 14 14 14 14 14 14 15 14 14 15 15 15 15 14 12 12 12 11 11 11 12 12 13 14 14 15 15 15 15 15 15 14
26 25 23 22 23 24 22 20 17 15 14 14 14 15 15 16 17 18 19 19 18 17 17 18 20 20 20 20 20 21 21 21 21 21 19 18 18 17 16 15 14 13 12 12 11 10 10 10 10 11 11 12 13 14 15 15 14 13 13 13 13 14 14 15 16 16 15 14 12 12 12 11 11 12 13 14 14 14 15 16 16 16 16 16 15
27 27 25 23 23 23 20 18 17 15 14 13 15 16 16 17 19 20 20 19 18 17 17 18 19 19 18 19 19 20 21 21 21 19 18 17 17 16 15 14 13 12 12 11 11 10 10 11 11 11 11 12 12 13 15 15 15 13 12 11 12 13 14 14 15 16 16 15 12 12 12 11 10 11 13 14 14 14 14 15 16 17 17 17 18
27 27 25 23 23 22 19 18 18 17 15 15 16 17 18 18 20 20 20 20 18 18 17 17 17 17 17 18 18 19 20 20 19 18 18 18 17 15 14 13 12 11 11 11 11 11 11 11 12 11 11 12 12 13 13 14 15 14 12 11 11 12 13 14 15 15 15 14 13 12 12 11 11 11 12 14 14 14 14 14 14 16 18 18 19
25 25 25 23 23 23 21 21 20 18 17 16 16 18 18 18 19 19 19 20 19 18 18 17 17 16 16 17 18 19 19 19 19 18 18 17 16 15 14 13 11 10 10 10 10 10 11 11 12 12 12 12 12 12 13 13 14 14 13 11 11 11 12 13 14 15 14 12 11 11 11 11 11 12 13 14 14 14 14 14 15 17 18 18 19
22 23 23 23 23 25 24 23 22 20 19 17 16 16 16 16 16 17 19 20 20 20 20 19 17 17 17 17 18 18 19 19 19 18 18 17 16 15 13 12 11 10 9 10 10 10 11 11 12 12 12 12 12 12 12 12 12 12 12 11 10 11 11 11 11 11 10 9 9 9 9 10 11 12 13 14 15 16 16 16 17 18 19 19 19
20 22 22 23 25 27 26 23 22 21 19 17 15 13 12 11 11 13 16 18 19 19 20 19 19 18 18 18 17 17 17 18 18 18 18 17 16 14 13 12 11 10 10 10 10 11 11 12 12 12 12 12 12 11 11 11 10 10 10 10 9 9 8 7 7 7 7 7 7 7 7 8 10 11 13 14 16 16 16 16 18 19 19 19 19
19 21 22 24 26 27 25 22 21 20 19 16 14 13 11 10 10 11 14 16 17 16 17 17 18 19 19 18 17 17 17 17 17 18 17 17 16 14 13 13 12 11 10 10 10 11 11 12 12 12 12 11 11 11 10 9 9 8 8 8 7 7 6 6 6 6 6 6 7 7 7 8 9 10 11 12 13 14 15 16 18 20 21 21 21
17 20 21 23 26 26 24 21 20 19 18 16 15 14 13 11 11 11 13 14 15 14 14 15 16 17 17 17 17 17 17 17 17 17 17 16 16 15 14 14 12 12 12 11 10 11 12 12 12 12 12 11 11 10 9 8 7 7 7 7 6 7 6 6 5 5 5 5 5 6 6 7 8 9 10 11 12 14 16 18 20 22 24 24 25
17 17 19 22 24 24 23 22 21 19 18 17 17 16 15 14 14 14 14 13 13 14 13 13 13 13 13 14 15 16 16 17 17 18 18 17 16 16 15 15 14 14 13 12 11 11 12 12 12 12 12 10 10 9 8 8 8 7 8 7 7 6 6 5 5 4 4 4 5 5 6 7 9 10 12 13 15 17 19 20 22 23 25 26 28
17 16 18 22 23 23 23 24 23 21 20 19 20 19 19 19 19 19 17 15 15 15 14 13 11 10 11 11 11 12 13 15 17 17 18 17 17 16 17 16 16 15 14 13 13 13 12 12 12 12 11 10 9 9 9 9 9 9 9 8 6 5 5 5 5 5 6 6 7 8 9 10 12 14 15 17 19 20 22 24 25 26 27 28 30
18 18 19 21 24 24 25 25 24 24 24 23 23 23 23 23 23 22 20 19 18 18 17 15 13 11 11 10 10 9 10 12 14 15 15 16 17 17 18 17 16 16 16 16 15 13 12 12 12 12 11 10 10 11 10 10 10 9 9 8 7 6 6 7 7 7 9 10 11 12 13 14 16 18 20 22 24 25 27 28 28 29 30 31 32
17 19 19 20 21 23 25 26 26 26 25 25 24 25 25 25 25 24 23 21 20 19 18 17 16 14 13 12 11 11 11 11 13 13 13 14 16 17 18 18 17 17 17 17 15 13 13 13 13 13 12 12 12 12 11 11 11 10 9 8 8 8 8 8 9 10 11 12 14 15 16 18 20 21 23 26 27 29 30 30 30 31 32 33 33
18 20 21 20 21 23 25 27 28 27 26 25 26 26 26 26 26 25 23 22 21 19 18 17 17 16 15 14 13 12 12 12 12 12 12 14 16 18 19 19 18 18 17 16 15 15 15 14 13 13 13 13 13 12 12 11 11 10 9 9 9 9 9 10 11 13 14 15 17 18 19 21 21 22 25 27 29 31 31 31 32 33 34 35 34
19 21 22 22 21 22 22 23 25 27 28 28 27 27 27 26 26 24 23 22 20 18 17 16 16 17 17 17 16 15 14 14 13 12 13 14 17 19 20 20 20 19 18 18 18 17 15 14 14 14 14 14 13 12 11 11 11 10 10 10 11 11 11 12 14 16 17 19 20 21 23 24 24 25 27 29 30 32 32 32 34 35 36 36 35
20 20 21 22 22 21 20 20 22 26 28 29 28 27 27 26 25 24 23 22 20 18 17 17 17 18 19 19 19 18 17 16 14 13 14 15 17 19 21 21 21 20 20 20 19 17 16 15 15 16 15 14 13 12 11 11 11 12 12 13 14 15 15 17 19 20 21 22 24 25 27 27 27 28 29 30 32 33 34 35 36 39 39 38 38
21 21 21 21 21 21 21 21 22 24 26 27 26 26 26 26 26 25 24 22 21 20 20 19 19 19 20 21 21 20 19 17 16 15 15 15 17 20 22 22 21 21 21 21 20 18 17 17 18 18 16 14 13 13 12 12 13 14 15 17 18 18 19 21 22 23 24 25 26 27 28 29 30 30 31 32 33 35 37 37 39 41 41 41 42
23 22 22 21 20 20 20 21 22 23 24 25 25 24 24 24 25 24 23 22 23 23 23 22 20 20 21 22 22 22 20 19 18 17 16 15 16 18 21 22 22 22 22 22 21 20 20 20 20 19 17 16 15 14 14 14 15 17 18 19 20 21 22 24 25 25 26 26 26 27 28 30 32 32 32 34 36 37 39 40 41 42 43 44 46
25 23 23 23 21 19 19 19 21 23 25 25 26 25 24 24 23 21 21 23 25 25 24 22 21 21 23 23 23 23 22 21 20 19 18 16 15 16 19 21 22 23 23 23 22 21 21 21 21 20 18 18 17 17 17 18 18 19 21 21 22 23 25 26 26 26 26 26 27 29 30 32 34 35 36 37 38 40 41 42 44 45 46 48 50
28 25 24 23 21 19 19 19 20 22 24 25 26 27 27 26 25 24 24 26 26 25 24 23 22 22 24 26 25 24 24 24 22 21 19 17 15 15 17 20 21 22 23 23 22 22 22 22 21 20 20 20 20 20 20 20 20 21 22 23 24 25 26 27 26 26 27 28 30 32 33 34 36 37 38 40 41 42 43 45 47 49 51 53 54
31 28 26 25 23 20 19 20 20 21 22 23 24 25 27 28 28 29 30 29 28 27 27 26 25 24 26 27 28 27 26 26 25 23 21 20 18 16 17 19 21 22 23 23 22 23 23 23 22 22 22 22 22 21 21 20 21 22 23 24 25 26 28 28 28 28 30 32 33 35 36 37 39 40 41 43 43 44 46 48 50 52 54 54 55
31 30 28 27 25 22 19 19 20 21 21 21 21 22 24 25 28 30 32 31 31 31 30 30 29 28 28 29 30 30 29 28 28 27 25 23 21 19 17 19 21 23 23 23 23 23 24 24 24 24 24 24 23 22 22 22 23 24 24 25 27 28 29 30 31 32 33 35 36 38 39 40 41 43 44 45 45 47 49 51 52 53 54 54 56
33 31 29 28 28 25 22 21 21 22 22 22 22 22 22 23 25 28 29 30 31 31 30 31 31 31 32 32 33 33 33 32 31 30 29 26 24 22 20 19 21 23 24 24 24 25 25 25 26 26 26 25 24 24 24 24 25 25 26 27 28 30 32 33 34 34 36 37 38 40 41 42 43 45 46 47 48 50 53 54 55 55 55 56 57
35 34 33 33 32 31 28 25 24 23 23 24 23 23 23 24 25 26 27 27 28 28 28 29 30 31 33 33 34 35 36 36 35 34 32 30 28 25 23 21 21 23 24 25 26 26 26 27 27 28 27 26 25 26 26 26 27 28 29 30 31 33 34 34 35 37 38 39 40 41 42 44 45 47 48 50 52 54 56 57 58 57 57 58 59
40 39 38 38 38 36 34 31 28 25 25 26 25 24 24 24 25 26 27 27 27 27 27 28 29 30 31 32 33 35 36 37 37 36 35 34 32 29 26 23 23 23 25 26 27 27 28 29 29 30 29 29 28 28 28 29 30 31 32 33 33 34 35 36 37 38 40 41 42 43 44 46 48 49 51 53 55 57 59 60 60 59 59 60 60
42 42 42 42 41 40 38 36 32 29 28 27 27 26 25 25 25 26 27 27 27 27 28 28 28 29 30 31 32 33 34 36 36 37 37 36 35 32 29 26 25 26 26 27 28 29 30 31 32 33 32 32 31 31 31 32 33 33 34 34 35 36 37 38 39 40 41 42 44 45 47 49 51 52 54 56 58 60 61 62 61 61 62 63 62
39 40 41 42 42 41 40 39 36 33 31 29 29 28 27 26 26 27 27 28 28 28 28 28 28 28 29 30 30 31 32 33 34 36 37 38 37 35 33 30 29 29 30 30 31 32 33 34 35 35 35 34 34 34 35 35 35 35 36 36 37 38 38 39 40 42 43 44 46 48 49 51 53 55 56 58 60 61 62 62 62 63 64 64 64
38 38 39 41 42 42 41 40 38 36 34 32 31 31 30 29 29 29 29 29 29 29 29 28 28 29 29 30 30 30 30 31 33 35 37 37 38 37 36 34 33 33 33 34 34 35 36 37 38 37 36 36 36 37 37 37 37 38 38 38 39 39 40 41 42 43 45 47 48 50 52 54 55 57 59 61 62 62 62 62 64 64 65 64 63
Wind_Direction
329 327 330 335 315 273 235 230 228 219 213 204 197 196 191 186 188 193 194 189 183 178 175 175 178 180 181 183 185 186 182 176 168 159 151 145 141 133 123 116 114 108 92 81 78 82 89 90 86 81 77 75 71 64 57 57 61 61 59 58 56 51 48 52 60 69 77 82 83 88 95 98 96 94 94 94 92 87 82 81 80 75 72 72 71
318 320 324 330 335 303 255 235 225 214 208 203 199 200 195 188 188 192 192 190 185 182 180 179 180 182 184 185 186 187 184 180 173 161 154 149 147 139 126 121 120 113 96 83 78 81 88 92 90 84 79 75 69 60 55 59 64 63 61 59 55 50 50 58 64 65 73 84 85 80 83 88 90 91 93 94 93 91 87 85 86 82 79 78 78
306 311 318 317 324 320 260 233 224 210 201 199 198 200 198 192 191 192 191 191 189 187 187 186 185 184 185 186 187 188 186 184 177 167 158 154 152 145 132 125 125 117 100 86 79 79 86 93 93 84 77 74 66 56 54 59 64 64 62 59 56 51 51 59 64 65 74 86 85 79 78 82 85 86 87 87 90 89 87 87 87 83 79 80 82
296 298 304 306 309 309 272 231 224 211 198 195 195 200 203 197 194 194 194 192 190 192 193 191 187 184 184 185 185 186 186 187 184 174 164 157 156 151 138 130 130 123 103 89 79 76 82 88 90 84 78 75 65 55 54 58 61 60 58 56 53 50 51 58 64 67 75 84 84 82 82 83 83 82 81 83 85 86 86 87 86 83 78 75 78
291 288 286 291 305 308 294 255 229 214 199 194 194 198 203 201 199 199 198 194 192 195 196 193 187 182 181 179 179 183 186 191 189 179 169 160 158 155 145 138 138 130 110 95 81 76 80 84 88 87 83 77 66 55 54 56 57 56 55 53 52 51 51 58 65 70 76 81 83 82 81 82 82 81 81 82 83 83 86 88 85 82 80 76 74
287 283 279 282 298 311 300 268 228 213 202 197 197 198 200 202 202 204 204 198 195 197 197 192 185 179 178 178 180 186 189 190 186 178 166 158 158 158 153 146 145 136 117 102 87 82 83 84 87 88 86 80 67 57 55 56 56 55 53 51 52 53 53 58 65 71 78 82 85 84 79 75 75 78 79 80 81 85 87 87 84 82 81 80 76
280 275 267 270 283 300 297 266 231 213 203 199 201 202 201 203 205 209 210 205 199 199 198 192 185 181 183 185 186 190 190 185 179 173 162 158 161 162 160 153 148 139 121 112 99 92 89 87 87 86 85 79 66 55 53 56 56 55 52 49 50 53 54 58 63 67 75 82 85 82 76 69 67 70 73 76 80 83 81 78 79 79 79 79 77
276 271 263 262 269 270 273 264 247 227 209 200 199 202 203 203 207 210 213 211 205 201 199 193 187 186 189 190 190 190 186 176 172 170 165 165 168 167 164 156 148 139 127 121 110 101 95 90 88 87 85 79 65 53 48 53 55 55 53 49 49 50 52 56 61 63 68 76 79 75 70 65 64 68 72 75 77 76 73 71 70 72 72 72 70
268 270 267 260 264 266 258 246 252 245 220 204 199 201 203 203 206 211 212 211 208 203 200 196 192 193 193 192 190 185 175 167 167 170 171 172 172 169 165 157 148 139 133 126 113 105 99 92 89 87 85 79 67 55 47 50 53 55 54 50 48 48 50 54 58 59 60 68 74 72 67 64 67 72 74 76 78 77 74 71 67 67 67 66 64
256 261 264 256 257 264 259 236 231 241 225 211 206 205 205 205 207 212 214 211 209 205 200 198 197 197 197 194 190 179 166 166 170 173 177 176 173 169 164 155 147 139 132 123 113 105 98 95 92 88 85 78 68 54 46 46 50 55 56 53 50 49 49 52 57 60 58 62 69 68 66 67 70 74 74 73 76 78 78 75 69 65 63 63 62
242 247 256 253 253 259 257 239 216 215 216 214 214 214 211 208 206 212 217 214 208 204 201 199 197 198 199 195 186 174 166 170 175 178 181 179 173 169 160 152 145 138 131 121 112 103 94 90 89 87 85 81 71 56 44 40 43 50 57 58 55 51 49 50 55 61 60 60 65 67 67 69 71 71 69 65 61 61 62 60 57 55 54 54 53
232 241 251 254 258 266 261 246 225 212 209 209 212 217 218 213 207 209 215 217 210 203 200 198 196 197 198 193 181 171 170 174 179 182 184 178 170 164 157 153 149 140 131 121 107 96 89 85 80 77 76 75 69 56 42 36 36 40 47 54 56 53 50 49 52 57 59 59 61 64 67 69 69 67 64 60 54 48 44 41 40 41 39 38 38
221 233 249 261 268 271 262 248 235 220 210 206 206 211 217 216 209 206 210 214 210 202 198 195 194 195 194 188 179 172 174 177 181 184 184 174 165 163 161 159 155 145 135 121 105 95 86 81 74 67 63 62 60 52 40 30 28 30 34 40 45 46 45 46 48 51 53 53 55 59 65 68 65 60 56 55 55 53 48 41 35 32 28 22 17
207 222 243 259 264 263 259 253 244 230 214 206 205 207 212 214 211 205 204 207 204 199 196 194 193 193 190 183 175 173 177 179 181 184 182 174 167 167 168 164 156 148 139 123 110 102 89 77 68 60 53 49 47 45 37 29 22 21 22 25 27 29 28 29 37 45 47 49 52 57 63 65 59 53 48 46 48 53 54 49 38 29 22 13 2
213 224 237 251 255 255 256 255 251 239 219 206 205 208 210 210 209 205 202 202 201 197 194 194 193 191 187 181 173 173 178 181 184 184 180 176 173 170 170 167 158 149 142 132 122 115 98 79 63 50 40 31 27 27 28 25 20 18 15 13 12 12 11 8 13 27 36 41 45 51 58 57 47 41 42 45 45 47 48 45 38 30 24 20 12
215 224 234 244 251 254 255 256 252 243 224 207 203 208 211 208 206 206 202 201 201 197 194 194 194 190 185 181 175 175 179 182 185 184 180 177 175 173 170 167 158 150 149 148 143 140 129 93 55 28 10 3 360 1 6 10 11 11 11 9 6 2 359 354 349 357 12 23 27 28 32 32 22 19 27 37 41 40 35 30 27 26 24 24 25
214 229 243 246 248 251 251 249 244 237 225 211 205 208 211 208 206 207 205 203 203 200 198 196 193 189 186 182 178 177 179 182 184 183 180 177 176 174 170 164 160 159 162 163 159 161 173 198 268 308 319 322 326 330 337 345 351 355 359 3 4 1 353 345 337 331 334 348 1 356 345 342 341 343 356 7 12 15 14 7 5 7 10 12 16
222 233 243 240 236 241 244 242 237 233 225 215 208 208 210 209 208 210 208 206 206 204 203 200 193 189 187 182 179 178 180 183 184 181 177 175 176 175 171 168 166 167 171 174 178 185 198 223 252 272 286 293 299 305 311 318 326 332 339 347 354 358 353 342 330 318 310 310 319 326 325 323 320 318 323 335 344 348 351 352 353 358 2 4 6
223 224 232 230 225 232 245 243 236 233 227 219 211 208 209 210 212 214 212 210 210 209 209 206 198 191 187 183 180 180 182 184 181 176 173 174 177 177 177 176 173 173 177 186 199 213 226 238 252 264 272 279 284 288 294 300 305 310 316 325 334 343 348 343 330 316 305 294 292 296 302 306 309 311 315 322 330 337 343 348 354 0 5 8 8
214 215 222 221 219 232 248 244 234 230 226 218 212 210 210 211 215 219 219 215 214 213 213 212 205 195 189 185 182 181 183 183 177 172 172 175 177 178 180 182 181 185 192 204 219 235 247 253 259 265 269 274 278 281 283 287 291 294 299 306 312 321 332 337 332 318 304 296 291 287 289 294 299 304 311 317 325 335 343 349 355 1 7 13 15
208 210 213 213 222 238 245 238 229 223 216 209 210 211 211 211 215 221 223 219 215 213 212 212 209 201 192 185 183 182 183 181 176 174 173 175 177 179 183 185 188 198 208 220 232 241 251 259 265 268 272 275 277 279 279 279 282 284 287 292 297 304 313 324 330 323 309 300 297 294 291 292 297 302 308 316 325 335 341 348 353 359 4 9 13
203 205 208 214 227 236 234 229 225 219 210 204 209 212 211 212 216 220 221 217 212 208 205 205 204 200 194 187 184 183 183 181 179 178 176 176 179 182 186 189 196 206 215 224 234 242 250 258 264 268 272 275 277 278 278 278 278 279 281 283 287 293 300 310 321 324 317 305 298 300 300 298 300 305 310 318 326 332 337 343 350 356 1 4 7
198 202 209 216 224 225 223 222 222 217 207 202 206 210 211 211 213 216 216 212 208 204 202 200 198 196 194 190 187 185 184 184 183 183 182 182 183 186 190 195 203 211 216 224 232 241 248 254 260 266 270 272 274 276 277 278 279 279 280 281 282 287 294 302 310 318 321 310 297 297 302 306 309 312 316 321 326 330 334 338 344 350 353 355 358
196 201 207 211 214 214 214 216 217 212 204 201 202 205 208 208 208 209 208 206 205 204 203 199 195 194 193 191 189 187 187 188 189 190 190 189 189 191 196 202 208 213 219 225 229 235 241 247 253 260 266 270 273 275 276 277 278 280 281 282 284 287 291 296 300 308 318 313 298 293 298 307 314 317 320 323 326 329 331 335 338 342 343 343 345
194 197 202 206 207 207 208 211 210 203 196 197 198 200 204 205 205 205 204 204 204 203 203 201 198 196 193 191 191 190 191 192 195 196 195 194 195 199 203 208 212 216 221 226 229 233 237 242 247 252 258 265 269 272 275 276 277 279 280 281 283 285 286 288 290 299 312 315 301 289 292 304 314 317 319 322 325 327 328 331 332 333 333 332 332
197 199 202 205 205 203 204 202 196 190 187 189 193 194 198 201 204 204 204 203 202 201 202 202 202 199 195 194 193 193 195 196 198 199 198 199 203 206 209 212 216 220 225 230 235 240 244 248 253 257 259 262 266 268 272 275 277 277 276 275 275 278 280 281 283 292 306 312 303 289 287 295 306 311 314 317 321 323 325 326 325 323 322 321 322
200 200 202 205 203 201 199 193 186 182 182 186 190 191 192 196 202 206 206 204 201 200 201 203 204 202 201 200 197 197 199 198 198 199 199 202 205 206 209 214 220 226 230 235 238 242 247 253 260 266 269 270 271 270 269 271 274 274 270 266 266 268 272 275 280 288 299 304 300 291 286 288 294 300 303 307 312 317 320 320 317 313 311 313 315
202 199 201 206 204 199 197 193 188 182 181 186 190 190 190 191 196 202 204 203 200 200 201 203 205 206 208 208 205 204 204 202 201 201 202 204 205 205 210 215 222 229 234 238 240 240 244 252 261 268 273 275 274 273 272 270 270 271 268 262 259 260 263 270 278 288 294 294 292 287 283 283 288 294 298 303 309 312 314 313 310 307 307 309 309
198 194 200 205 199 194 194 195 191 183 181 185 186 186 185 184 188 195 198 199 198 198 199 200 202 206 209 212 213 212 210 207 205 205 205 207 207 209 213 216 222 230 237 241 243 242 244 248 255 264 272 275 274 273 273 271 267 266 264 260 257 256 259 266 274 282 285 285 285 285 283 284 288 294 300 306 310 312 314 312 308 307 309 310 308
189 183 192 199 192 188 192 196 192 187 183 183 180 176 172 170 174 183 190 194 195 195 197 197 199 203 208 211 214 214 215 213 209 208 209 211 212 214 217 220 223 230 237 242 245 245 247 249 253 262 269 272 273 272 271 269 264 259 259 260 259 258 257 256 253 251 257 267 275 280 284 287 290 294 298 304 308 311 315 315 311 312 313 312 313
182 174 183 193 189 187 191 192 189 187 185 182 179 175 170 169 171 173 178 183 184 185 188 190 195 202 206 209 211 213 215 214 212 212 213 215 217 220 222 224 226 229 234 239 243 245 247 250 256 263 266 266 267 268 267 264 259 255 253 253 252 251 245 233 224 226 238 254 267 279 288 292 294 295 296 301 306 310 313 313 311 311 312 312 313
181 173 177 187 188 187 189 188 183 182 182 181 182 182 179 180 180 177 176 176 173 172 176 182 191 199 204 208 211 212 214 214 215 217 218 220 223 225 228 229 229 230 231 233 237 239 242 248 257 262 260 258 258 259 258 256 254 251 247 241 233 234 237 234 232 237 244 256 270 282 289 293 295 297 299 302 304 305 304 304 304 305 307 309 309
184 177 171 176 182 186 188 189 187 183 182 182 183 184 184 187 189 187 184 179 172 169 171 178 187 192 197 206 213 216 218 219 221 222 223 225 228 230 233 233 232 232 232 231 232 233 236 244 251 253 252 251 251 250 248 246 245 242 238 233 227 227 235 240 244 250 259 270 281 286 288 293 296 299 302 301 299 298 297 296 297 300 302 303 303
188 185 176 172 174 180 185 188 188 187 189 191 188 186 188 192 193 193 191 187 180 175 174 178 186 190 191 197 207 216 223 227 229 231 233 233 234 235 235 235 235 235 234 232 229 226 230 238 243 244 243 242 241 237 235 236 237 235 233 232 233 237 242 247 252 265 275 283 288 290 293 294 295 296 296 294 294 294 293 292 294 296 297 297 298
190 192 189 180 175 177 181 187 189 191 194 194 190 189 193 195 194 194 194 192 188 184 181 183 190 199 202 199 199 209 223 232 236 239 241 242 240 239 238 237 236 233 231 230 227 222 224 231 236 236 232 228 228 227 228 230 231 231 231 233 237 242 248 254 263 274 282 289 292 294 294 293 292 294 293 292 292 291 290 290 292 293 293 293 294
195 198 198 192 185 183 185 190 193 194 196 194 191 192 195 195 195 194 194 195 194 191 190 190 194 204 214 214 211 212 220 230 236 238 242 244 242 239 237 235 231 227 227 229 226 220 218 223 228 230 226 222 221 221 223 227 229 230 231 235 239 244 250 260 271 278 283 288 289 289 289 288 289 290 289 288 287 286 287 289 289 290 290 290 293
201 202 203 201 196 191 190 193 196 198 198 197 196 196 196 196 197 195 194 196 196 196 196 196 198 206 218 224 225 224 224 229 234 236 238 241 239 235 232 229 224 222 223 224 222 218 217 218 222 224 223 221 219 220 224 230 236 240 241 243 246 248 253 261 267 272 276 279 281 282 283 284 286 286 285 284 284 284 286 288 289 290 289 291 295
202 201 203 201 195 190 189 192 196 199 202 202 201 200 198 199 199 198 198 199 198 198 200 201 203 210 220 228 231 234 235 235 237 236 235 237 237 233 230 226 220 218 218 218 217 217 216 216 217 219 220 220 221 223 228 237 248 255 257 257 257 260 265 272 275 277 279 280 282 284 285 288 290 289 288 288 288 288 289 290 291 291 291 294 297
205 202 202 199 192 189 192 194 194 197 201 204 204 203 200 199 199 200 202 203 202 205 208 209 209 213 222 229 233 237 240 240 240 240 238 237 235 233 231 226 220 216 215 215 213 213 215 214 215 217 218 220 225 230 237 249 261 270 275 277 277 280 283 284 283 283 284 285 287 290 292 293 293 292 291 292 291 292 293 293 293 293 296 299 299
208 204 203 201 196 193 195 195 192 192 196 200 201 202 201 199 200 202 203 203 206 212 216 216 214 215 221 228 233 238 241 241 241 242 242 241 238 235 233 230 222 215 213 213 211 211 213 212 213 214 215 218 226 234 243 253 261 268 272 274 275 277 277 276 276 279 281 284 286 289 290 290 290 290 291 291 290 291 291 291 292 295 299 303 301
211 206 205 206 204 202 200 198 194 192 192 193 194 196 198 200 202 201 200 203 209 215 217 216 215 216 220 227 233 240 242 242 242 243 245 247 245 240 235 232 225 216 212 212 212 211 212 211 212 214 216 220 227 234 240 247 252 257 261 264 267 269 269 270 272 275 277 279 281 282 283 284 286 286 286 286 286 287 288 291 294 298 303 306 305
214 210 208 208 205 203 201 199 196 194 192 191 192 191 194 199 200 198 200 206 212 214 214 215 215 215 219 224 232 240 245 246 246 246 247 250 253 248 240 233 227 219 214 213 213 213 212 212 215 218 221 225 231 235 240 246 251 256 261 265 269 270 270 270 272 274 276 276 276 277 279 281 282 283 283 284 285 287 289 293 297 301 305 308 307
216 212 210 209 205 201 198 197 199 200 198 196 195 194 195 196 196 197 203 208 211 211 211 213 214 215 218 221 227 235 243 248 250 250 251 253 257 254 245 236 228 220 215 215 216 215 214 216 219 224 228 232 236 241 246 252 256 261 265 268 270 269 270 272 274 275 274 273 274 276 278 280 281 283 285 287 288 290 293 296 299 303 306 307 307
217 213 210 208 205 201 200 200 201 204 205 204 202 201 201 199 197 199 203 206 209 210 210 211 213 216 219 221 224 228 237 245 251 252 252 253 258 259 250 238 229 222 218 218 219 219 219 221 225 230 235 239 243 248 253 256 259 262 264 265 267 269 272 274 275 274 273 274 276 278 278 280 282 285 288 290 291 293 296 299 302 305 307 307 308
222 219 214 211 208 205 206 207 207 208 210 210 207 206 206 206 205 205 205 207 209 211 211 212 214 217 219 222 224 226 229 237 246 251 252 252 256 259 254 240 231 227 224 223 223 225 226 227 230 234 238 241 245 250 253 255 258 260 262 265 268 271 273 274 274 274 275 276 277 278 280 283 286 289 292 294 296 299 301 303 306 308 308 308 308
227 226 223 219 217 215 215 214 213 214 214 213 211 208 206 207 212 214 213 213 214 215 215 215 216 218 219 221 223 225 227 230 236 244 249 251 251 253 253 245 236 231 229 228 229 230 231 232 235 238 240 243 246 250 252 255 258 260 263 265 267 269 271 273 276 278 278 279 280 282 285 287 289 292 295 298 300 301 303 305 308 308 307 306 306
226 228 228 226 226 225 224 221 218 218 219 218 216 212 208 206 210 215 218 219 221 222 223 222 223 224 224 223 223 224 226 227 229 234 241 246 247 248 250 250 243 237 235 235 235 235 235 236 239 243 246 248 249 251 254 256 259 261 263 265 267 270 274 278 280 281 282 284 286 288 289 290 293 295 297 299 301 302 304 306 308 307 306 306 306
221 223 225 226 227 227 227 225 222 220 221 222 220 218 214 212 212 215 218 221 222 224 226 227 228 229 230 230 228 227 227 227 227 229 235 240 244 245 248 249 246 241 239 239 239 238 239 242 245 248 250 251 251 252 254 257 259 262 265 268 272 275 278 280 282 285 288 290 291 291 293 294 296 298 299 300 301 303 305 307 307 307 307 308 307
217 218 221 224 226 227 227 226 225 222 220 222 223 222 220 219 218 219 221 223 224 225 226 228 230 232 234 235 235 234 232 230 229 229 232 235 239 242 244 246 245 241 239 238 239 240 243 247 250 252 254 254 254 255 257 259 262 266 269 272 274 276 279 282 286 289 291 292 293 294 295 296 297 298 299 300 302 304 306 307 308 308 308 308 308
215 216 219 223 226 227 227 227 227 224 220 219 222 225 225 225 224 225 226 227 228 228 228 229 229 231 233 236 239 240 239 236 234 233 232 234 236 237 238 240 241 240 239 238 239 241 244 248 252 255 257 257 257 258 260 263 266 269 272 273 275 278 282 285 287 289 290 292 293 294 295 296 297 298 299 300 302 305 306 307 307 308 308 308 308
222 221 222 224 226 228 228 228 229 228 224 221 222 225 228 229 229 229 230 231 232 233 233 233 232 232 233 235 238 241 241 241 239 237 236 235 236 237 237 237 238 240 240 240 241 242 244 246 250 254 257 258 259 261 263 266 268 270 272 274 277 280 283 284 286 288 290 291 292 293 294 295 296 298 299 301 303 306 307 307 307 308 308 308 308
Height
5906 5906 5906 5907 5908 5908 5908 5908 5908 5910 5911 5913 5915 5916 5917 5918 5920 5922 5923 5925 5926 5927 5928 5929 5931 5932 5934 5934 5936 5937 5937 5938 5939 5940 5941 5942 5942 5943 5944 5944 5945 5945 5945 5945 5945 5946 5946 5946 5945 5945 5945 5945 5944 5944 5943 5943 5942 5942 5942 5941 5941 5941 5941 5940 5940 5941 5940 5940 5939 5939 5939 5938 5938 5937 5937 5937 5936 5936 5936 5935 5935 5934 5934 5933 5933
5906 5906 5905 5906 5907 5907 5907 5907 5908 5909 5910 5912 5914 5915 5916 5917 5919 5921 5922 5924 5925 5926 5927 5928 5929 5931 5932 5934 5935 5937 5937 5938 5939 5940 5941 5942 5942 5943 5944 5944 5945 5945 5946 5946 5946 5946 5946 5946 5946 5946 5946 5945 5945 5944 5944 5943 5943 5943 5942 5942 5941 5941 5941 5941 5941 5940 5940 5940 5940 5939 5939 5939 5939 5938 5938 5938 5938 5937 5936 5936 5936 5935 5935 5934 5933
5906 5906 5905 5906 5906 5906 5907 5907 5908 5908 5909 5911 5913 5915 5916 5917 5919 5920 5922 5923 5924 5925 5926 5927 5928 5930 5932 5934 5935 5937 5937 5938 5939 5940 5941 5941 5942 5943 5944 5944 5945 5946 5946 5946 5947 5947 5947 5947 5947 5947 5946 5946 5945 5945 5944 5944 5943 5943 5943 5942 5942 5942 5941 5941 5941 5941 5941 5941 5940 5939 5939 5939 5939 5939 5939 5939 5939 5938 5937 5937 5937 5936 5935 5935 5934
5905 5905 5905 5906 5906 5906 5907 5907 5908 5908 5909 5910 5912 5914 5916 5917 5919 5920 5921 5922 5923 5924 5925 5926 5928 5930 5932 5934 5935 5937 5938 5938 5939 5939 5940 5941 5942 5943 5944 5944 5945 5946 5946 5946 5947 5947 5947 5947 5947 5947 5947 5947 5946 5946 5945 5945 5944 5944 5943 5942 5942 5942 5942 5942 5941 5941 5942 5941 5940 5941 5941 5941 5940 5940 5939 5940 5939 5939 5938 5938 5938 5937 5936 5935 5935
5904 5905 5905 5905 5906 5906 5906 5907 5907 5908 5909 5910 5912 5913 5915 5917 5919 5920 5920 5921 5922 5923 5925 5926 5928 5929 5931 5933 5935 5936 5937 5938 5938 5939 5940 5941 5942 5943 5944 5944 5945 5946 5946 5947 5947 5947 5947 5947 5947 5948 5948 5947 5947 5947 5946 5946 5945 5944 5944 5944 5943 5943 5943 5943 5942 5942 5943 5942 5941 5941 5942 5942 5941 5941 5941 5940 5940 5940 5939 5939 5939 5938 5937 5936 5936
5903 5904 5904 5904 5905 5906 5906 5906 5907 5908 5909 5910 5911 5913 5914 5916 5918 5919 5920 5920 5921 5923 5924 5926 5927 5929 5931 5932 5934 5935 5936 5937 5938 5939 5940 5941 5942 5943 5944 5944 5945 5946 5947 5947 5947 5948 5948 5948 5948 5948 5948 5948 5948 5948 5947 5946 5946 5945 5945 5945 5944 5944 5944 5943 5943 5943 5943 5943 5942 5942 5943 5943 5942 5942 5942 5941 5941 5941 5940 5940 5939 5938 5938 5937 5937
5901 5902 5903 5904 5904 5905 5905 5906 5907 5907 5908 5909 5911 5912 5914 5915 5917 5919 5920 5921 5922 5923 5924 5926 5927 5928 5929 5931 5932 5933 5935 5936 5938 5939 5940 5941 5942 5943 5943 5944 5945 5946 5947 5947 5948 5948 5948 5948 5948 5948 5948 5948 5948 5948 5948 5947 5946 5946 5946 5945 5945 5945 5944 5944 5944 5944 5944 5944 5944 5943 5943 5943 5943 5942 5942 5942 5942 5941 5941 5940 5939 5939 5939 5938 5938
5900 5901 5902 5903 5903 5904 5904 5905 5906 5907 5908 5909 5910 5912 5913 5915 5916 5918 5919 5921 5922 5923 5924 5925 5926 5927 5928 5930 5932 5933 5935 5937 5938 5939 5940 5941 5942 5943 5944 5944 5946 5946 5947 5947 5948 5948 5948 5948 5949 5949 5949 5949 5949 5948 5948 5948 5947 5947 5947 5946 5946 5945 5945 5945 5945 5945 5945 5945 5944 5944 5944 5944 5943 5943 5943 5943 5943 5942 5941 5941 5940 5940 5940 5939 5939
5898 5899 5900 5901 5902 5902 5903 5904 5905 5906 5908 5909 5909 5911 5912 5914 5915 5917 5918 5920 5921 5922 5924 5925 5926 5927 5928 5930 5931 5933 5935 5937 5938 5939 5940 5941 5942 5943 5944 5945 5946 5947 5947 5948 5948 5948 5949 5949 5949 5949 5949 5949 5949 5949 5949 5949 5948 5948 5947 5947 5946 5946 5946 5946 5946 5946 5946 5946 5945 5945 5945 5945 5944 5944 5944 5944 5944 5943 5943 5943 5942 5942 5941 5940 5940
5896 5898 5899 5900 5901 5901 5902 5903 5904 5905 5906 5908 5909 5910 5911 5913 5914 5916 5918 5919 5921 5922 5923 5924 5926 5927 5928 5929 5931 5933 5935 5936 5937 5938 5939 5941 5942 5943 5944 5945 5946 5947 5947 5948 5948 5948 5949 5949 5949 5949 5949 5949 5949 5949 5949 5949 5949 5948 5948 5948 5947 5947 5947 5947 5947 5947 5947 5947 5946 5946 5946 5946 5945 5945 5945 5945 5945 5945 5945 5944 5944 5943 5942 5941 5941
5895 5896 5897 5898 5899 5900 5901 5902 5902 5903 5904 5906 5908 5909 5910 5912 5913 5915 5917 5918 5920 5921 5923 5924 5925 5927 5928 5929 5931 5933 5934 5936 5937 5938 5939 5940 5942 5943 5944 5945 5946 5947 5947 5948 5948 5949 5949 5949 5949 5949 5950 5950 5950 5950 5950 5950 5950 5949 5949 5949 5948 5948 5948 5948 5948 5948 5948 5948 5947 5947 5946 5946 5946 5945 5945 5945 5944 5944 5944 5944 5944 5943 5943 5942 5942
5893 5894 5895 5897 5897 5899 5899 5900 5901 5902 5903 5904 5906 5908 5909 5911 5912 5914 5916 5917 5919 5921 5922 5923 5925 5926 5928 5929 5931 5932 5934 5935 5936 5937 5939 5940 5941 5943 5944 5945 5946 5947 5947 5948 5948 5949 5949 5949 5950 5950 5950 5950 5951 5950 5950 5950 5950 5950 5950 5950 5949 5949 5949 5949 5949 5949 5949 5948 5948 5947 5947 5947 5946 5946 5945 5945 5945 5944 5944 5943 5943 5943 5943 5942 5942
5891 5892 5893 5894 5896 5897 5898 5898 5899 5900 5901 5902 5903 5906 5908 5910 5911 5913 5915 5916 5918 5920 5921 5923 5924 5925 5927 5929 5930 5932 5933 5934 5936 5937 5938 5940 5941 5942 5943 5945 5946 5947 5947 5948 5949 5949 5949 5950 5950 5950 5950 5951 5951 5951 5951 5951 5951 5951 5950 5950 5950 5950 5950 5950 5950 5949 5949 5949 5948 5948 5947 5947 5947 5946 5946 5946 5945 5945 5945 5944 5943 5943 5943 5942 5942
5888 5889 5891 5892 5894 5896 5896 5897 5898 5899 5900 5901 5902 5904 5906 5909 5910 5912 5913 5915 5917 5919 5920 5922 5923 5924 5926 5928 5930 5931 5932 5934 5935 5937 5938 5939 5941 5942 5943 5944 5945 5946 5947 5948 5949 5949 5950 5950 5950 5951 5951 5951 5951 5952 5951 5951 5951 5951 5951 5951 5950 5950 5950 5950 5950 5949 5949 5949 5949 5948 5948 5947 5947 5946 5946 5946 5945 5945 5945 5945 5944 5944 5943 5943 5942
5886 5887 5889 5890 5892 5894 5895 5896 5897 5898 5898 5899 5901 5903 5905 5907 5909 5911 5912 5913 5915 5917 5919 5921 5922 5923 5925 5927 5929 5930 5931 5933 5934 5936 5937 5939 5940 5941 5942 5944 5945 5946 5947 5948 5949 5949 5950 5950 5951 5951 5951 5951 5951 5952 5952 5951 5951 5951 5951 5951 5951 5950 5950 5950 5949 5949 5949 5949 5949 5949 5948 5948 5947 5947 5946 5946 5946 5946 5945 5945 5945 5944 5944 5944 5943
5883 5885 5887 5888 5890 5891 5893 5894 5895 5896 5897 5897 5899 5902 5904 5906 5907 5909 5911 5912 5914 5916 5918 5919 5921 5922 5924 5926 5928 5929 5930 5932 5934 5936 5937 5938 5939 5941 5942 5943 5944 5946 5947 5948 5949 5949 5950 5950 5951 5951 5951 5951 5951 5951 5952 5951 5951 5951 5951 5951 5951 5950 5950 5950 5949 5949 5949 5949 5949 5949 5949 5948 5948 5948 5947 5947 5947 5946 5946 5946 5946 5945 5945 5944 5944
5882 5883 5885 5887 5888 5889 5891 5893 5894 5895 5896 5896 5898 5900 5902 5904 5906 5908 5910 5911 5912 5914 5916 5918 5919 5921 5923 5925 5927 5928 5929 5931 5933 5935 5936 5938 5939 5940 5941 5943 5944 5945 5946 5947 5948 5949 5950 5950 5951 5951 5951 5951 5951 5951 5951 5951 5951 5951 5951 5951 5950 5950 5950 5950 5949 5949 5948 5948 5948 5948 5948 5948 5948 5948 5948 5947 5947 5946 5946 5946 5946 5945 5945 5944 5943
5880 5882 5884 5885 5886 5887 5889 5891 5892 5893 5894 5895 5896 5898 5900 5902 5904 5907 5909 5911 5912 5914 5916 5917 5918 5920 5922 5924 5925 5927 5928 5930 5932 5933 5935 5937 5938 5939 5941 5942 5943 5944 5946 5947 5948 5949 5949 5950 5950 5951 5951 5951 5951 5950 5950 5950 5950 5950 5950 5950 5950 5950 5949 5949 5949 5948 5948 5948 5948 5948 5947 5947 5947 5947 5947 5947 5947 5946 5946 5946 5946 5945 5945 5944 5943
5877 5879 5881 5883 5884 5886 5887 5889 5890 5891 5892 5893 5895 5896 5899 5901 5903 5906 5908 5910 5911 5913 5915 5917 5918 5919 5921 5922 5924 5925 5927 5929 5930 5932 5934 5936 5937 5939 5940 5941 5943 5944 5945 5946 5947 5948 5949 5949 5950 5950 5950 5951 5950 5950 5950 5949 5949 5949 5950 5949 5949 5949 5949 5948 5948 5948 5948 5947 5947 5947 5947 5947 5947 5947 5947 5946 5946 5946 5946 5946 5945 5945 5945 5944 5943
5874 5877 5879 5881 5882 5884 5886 5887 5888 5890 5891 5893 5894 5896 5898 5900 5903 5905 5907 5908 5910 5912 5915 5917 5919 5919 5920 5922 5923 5925 5926 5928 5930 5931 5933 5934 5936 5938 5939 5941 5942 5943 5944 5945 5946 5947 5948 5948 5949 5949 5950 5950 5950 5950 5949 5949 5949 5948 5948 5948 5948 5948 5948 5948 5947 5947 5947 5947 5947 5946 5946 5946 5946 5946 5946 5946 5946 5946 5946 5946 5945 5945 5945 5944 5944
5872 5875 5877 5879 5880 5882 5884 5885 5886 5888 5889 5891 5893 5895 5897 5899 5902 5904 5905 5908 5910 5912 5914 5916 5918 5919 5920 5921 5922 5924 5925 5927 5929 5930 5932 5933 5935 5937 5938 5940 5941 5943 5944 5944 5945 5946 5946 5947 5948 5948 5948 5949 5949 5949 5949 5948 5948 5948 5947 5947 5947 5947 5947 5947 5947 5946 5946 5946 5946 5946 5946 5946 5945 5945 5945 5945 5945 5945 5946 5946 5945 5945 5945 5944 5944
5870 5872 5874 5876 5878 5880 5881 5883 5884 5886 5888 5890 5892 5894 5896 5898 5900 5902 5904 5907 5908 5910 5912 5915 5917 5918 5919 5920 5921 5923 5924 5926 5927 5929 5930 5932 5934 5936 5937 5939 5940 5941 5942 5943 5944 5945 5945 5946 5946 5947 5947 5947 5947 5947 5947 5947 5947 5947 5947 5946 5946 5946 5946 5946 5946 5946 5945 5945 5945 5945 5945 5945 5945 5945 5945 5945 5945 5945 5945 5945 5945 5945 5945 5944 5944
5868 5870 5872 5874 5876 5878 5879 5880 5883 5885 5887 5888 5890 5892 5895 5897 5899 5901 5903 5905 5907 5909 5911 5913 5915 5917 5918 5919 5920 5922 5924 5925 5926 5928 5929 5930 5932 5934 5935 5937 5939 5940 5941 5942 5943 5943 5944 5944 5945 5945 5945 5946 5946 5946 5946 5946 5946 5946 5946 5945 5945 5945 5945 5945 5945 5945 5945 5944 5944 5944 5944 5944 5944 5944 5944 5944 5944 5944 5944 5944 5944 5944 5943 5943 5943
5865 5867 5869 5871 5873 5875 5877 5879 5881 5884 5885 5887 5889 5891 5893 5895 5897 5900 5902 5904 5906 5908 5910 5912 5914 5915 5917 5918 5920 5921 5923 5924 5925 5926 5928 5929 5931 5932 5934 5935 5937 5938 5940 5941 5942 5942 5943 5943 5944 5944 5944 5944 5944 5944 5944 5944 5944 5945 5945 5945 5945 5945 5944 5944 5944 5944 5944 5944 5943 5943 5943 5944 5944 5943 5943 5943 5943 5943 5942 5942 5942 5942 5942 5941 5941
5862 5864 5866 5868 5870 5873 5875 5878 5880 5882 5884 5885 5887 5889 5891 5894 5896 5898 5900 5902 5904 5906 5909 5911 5912 5914 5916 5918 5919 5921 5922 5923 5924 5925 5927 5928 5929 5931 5932 5934 5935 5936 5938 5939 5940 5941 5942 5942 5942 5942 5943 5942 5942 5942 5942 5942 5943 5943 5944 5944 5944 5943 5943 5943 5942 5942 5943 5943 5943 5942 5942 5943 5943 5943 5942 5942 5942 5942 5941 5941 5940 5940 5940 5940 5939
5860 5861 5863 5866 5868 5871 5874 5876 5878 5880 5882 5883 5885 5887 5890 5892 5894 5896 5898 5900 5903 5905 5907 5909 5912 5914 5916 5917 5918 5920 5921 5922 5923 5924 5926 5927 5928 5929 5931 5932 5933 5935 5936 5937 5938 5938 5939 5940 5940 5940 5941 5941 5941 5941 5940 5940 5941 5941 5942 5942 5942 5942 5942 5942 5942 5942 5941 5941 5941 5941 5941 5942 5942 5942 5941 5941 5940 5940 5940 5940 5939 5938 5938 5937 5937
5857 5859 5861 5864 5866 5870 5872 5875 5876 5878 5880 5882 5884 5886 5888 5890 5892 5894 5897 5899 5901 5903 5905 5908 5911 5913 5914 5916 5917 5918 5919 5920 5922 5923 5924 5925 5927 5928 5929 5930 5932 5933 5934 5935 5936 5936 5937 5937 5937 5938 5939 5939 5939 5939 5939 5939 5939 5939 5940 5940 5940 5940 5940 5941 5941 5941 5941 5940 5940 5940 5940 5941 5941 5941 5940 5940 5939 5939 5939 5939 5938 5937 5936 5936 5935
5854 5857 5859 5861 5865 5868 5871 5873 5875 5876 5878 5881 5882 5884 5886 5888 5890 5893 5895 5897 5899 5901 5904 5906 5909 5911 5913 5914 5915 5916 5918 5919 5920 5922 5923 5924 5925 5926 5927 5928 5930 5931 5932 5933 5934 5934 5935 5935 5936 5936 5936 5937 5937 5937 5937 5937 5937 5937 5937 5938 5939 5939 5939 5939 5939 5939 5939 5939 5939 5939 5939 5939 5939 5939 5939 5938 5938 5938 5938 5938 5937 5936 5935 5935 5934
5852 5854 5857 5860 5862 5866 5869 5871 5873 5875 5877 5879 5881 5883 5885 5887 5889 5891 5894 5896 5897 5899 5902 5904 5907 5909 5911 5912 5914 5915 5916 5918 5919 5920 5921 5922 5923 5924 5925 5926 5928 5929 5930 5931 5932 5932 5933 5934 5934 5934 5935 5935 5935 5935 5935 5935 5935 5935 5935 5936 5936 5937 5937 5938 5938 5937 5937 5937 5938 5938 5938 5938 5938 5938 5937 5937 5937 5937 5936 5936 5936 5935 5934 5934 5933
5850 5853 5855 5858 5860 5864 5867 5870 5871 5873 5876 5878 5880 5883 5884 5886 5888 5890 5892 5894 5896 5898 5900 5902 5904 5906 5908 5910 5912 5914 5915 5916 5917 5918 5919 5920 5921 5922 5923 5924 5925 5927 5928 5929 5930 5930 5931 5932 5932 5933 5933 5933 5933 5933 5933 5933 5933 5933 5933 5934 5934 5935 5935 5936 5936 5936 5936 5936 5936 5936 5937 5937 5937 5937 5936 5936 5936 5935 5935 5935 5934 5933 5932 5932 5931
5849 5851 5854 5856 5859 5862 5865 5868 5870 5872 5875 5877 5879 5882 5884 5885 5887 5889 5891 5893 5895 5897 5899 5900 5902 5904 5906 5908 5910 5912 5913 5915 5916 5916 5917 5918 5919 5920 5921 5922 5923 5925 5926 5927 5928 5928 5929 5929 5930 5931 5931 5931 5931 5931 5931 5931 5931 5931 5932 5932 5932 5933 5933 5934 5934 5934 5935 5935 5935 5935 5936 5936 5936 5936 5936 5935 5935 5934 5934 5933 5932 5931 5930 5929 5929
5848 5850 5853 5855 5858 5861 5863 5866 5869 5871 5874 5876 5878 5881 5883 5885 5887 5889 5890 5892 5894 5896 5898 5899 5900 5902 5904 5906 5908 5909 5911 5912 5913 5914 5915 5916 5917 5918 5919 5920 5921 5922 5923 5924 5925 5926 5927 5927 5928 5928 5929 5929 5929 5929 5929 5930 5930 5930 5930 5930 5931 5931 5932 5932 5933 5933 5933 5934 5934 5935 5935 5935 5935 5935 5934 5934 5934 5933 5932 5931 5930 5929 5928 5927 5926
5846 5849 5852 5854 5857 5860 5862 5865 5868 5870 5873 5875 5877 5880 5883 5885 5887 5888 5889 5891 5893 5895 5896 5898 5899 5901 5903 5904 5906 5908 5909 5910 5911 5912 5912 5913 5914 5916 5917 5918 5919 5920 5921 5922 5923 5924 5925 5925 5926 5926 5927 5927 5927 5927 5928 5928 5928 5929 5929 5929 5930 5930 5930 5931 5931 5932 5932 5933 5933 5933 5933 5934 5934 5933 5933 5933 5932 5931 5930 5929 5928 5927 5926 5925 5923
5844 5847 5850 5853 5856 5858 5860 5863 5866 5869 5871 5873 5876 5878 5881 5883 5885 5886 5888 5890 5892 5893 5895 5897 5898 5900 5901 5903 5904 5906 5907 5908 5909 5909 5910 5911 5913 5914 5914 5915 5916 5917 5919 5920 5921 5922 5922 5923 5923 5924 5925 5925 5925 5926 5926 5926 5927 5927 5927 5928 5928 5929 5929 5930 5930 5931 5931 5932 5932 5932 5932 5932 5932 5931 5931 5930 5929 5929 5927 5926 5926 5925 5924 5922 5921
5842 5845 5848 5851 5853 5856 5859 5861 5864 5866 5868 5871 5873 5876 5878 5881 5883 5885 5887 5889 5891 5892 5894 5895 5897 5898 5900 5901 5903 5904 5905 5906 5907 5907 5908 5909 5910 5911 5912 5913 5914 5915 5916 5917 5918 5919 5920 5921 5921 5922 5923 5923 5923 5924 5924 5925 5925 5925 5926 5927 5927 5928 5928 5929 5929 5930 5930 5930 5930 5930 5931 5931 5930 5930 5929 5928 5927 5926 5924 5924 5923 5922 5922 5920 5918
5840 5843 5846 5848 5851 5854 5857 5859 5861 5863 5865 5868 5871 5873 5875 5878 5880 5883 5885 5887 5889 5891 5892 5894 5895 5897 5898 5899 5900 5902 5903 5903 5904 5905 5906 5907 5908 5908 5909 5910 5911 5912 5913 5914 5916 5917 5918 5918 5919 5919 5920 5921 5921 5922 5922 5922 5923 5924 5925 5925 5926 5927 5927 5927 5928 5928 5928 5929 5928 5928 5929 5928 5928 5928 5926 5925 5924 5922 5921 5921 5920 5919 5918 5917 5916
5838 5840 5843 5845 5848 5850 5853 5855 5857 5860 5862 5865 5867 5870 5872 5875 5877 5880 5883 5885 5887 5889 5890 5892 5893 5895 5896 5897 5898 5899 5900 5901 5902 5903 5904 5904 5905 5905 5906 5907 5909 5910 5911 5912 5913 5914 5915 5916 5917 5917 5918 5918 5919 5919 5920 5920 5920 5921 5922 5924 5924 5925 5925 5926 5926 5926 5927 5927 5927 5926 5926 5926 5926 5925 5923 5922 5920 5918 5918 5917 5916 5915 5914 5913 5914
5834 5837 5839 5841 5843 5845 5848 5851 5853 5856 5858 5860 5863 5866 5868 5871 5874 5877 5879 5882 5884 5886 5888 5890 5891 5892 5893 5894 5895 5896 5897 5898 5899 5900 5901 5901 5902 5902 5903 5904 5906 5907 5908 5909 5910 5911 5912 5913 5914 5915 5915 5916 5916 5916 5917 5917 5918 5918 5920 5921 5921 5922 5923 5923 5924 5924 5924 5924 5924 5923 5923 5922 5922 5922 5920 5918 5916 5914 5913 5913 5911 5910 5908 5909 5910
5831 5833 5835 5837 5839 5842 5844 5846 5849 5851 5854 5856 5859 5862 5865 5867 5870 5873 5875 5878 5881 5883 5885 5886 5888 5889 5890 5891 5892 5893 5895 5896 5897 5897 5898 5898 5899 5899 5900 5901 5903 5904 5905 5906 5907 5908 5909 5911 5911 5912 5912 5913 5913 5913 5914 5915 5915 5915 5916 5917 5917 5919 5920 5920 5920 5920 5920 5920 5920 5919 5918 5918 5917 5916 5915 5914 5912 5910 5909 5908 5906 5904 5903 5904 5904
5828 5830 5832 5834 5836 5839 5841 5843 5846 5848 5851 5854 5856 5859 5862 5864 5866 5869 5871 5875 5877 5879 5881 5882 5884 5886 5887 5889 5890 5891 5892 5893 5894 5894 5895 5895 5896 5896 5897 5898 5900 5901 5902 5903 5904 5906 5907 5908 5908 5909 5910 5910 5910 5911 5911 5912 5913 5913 5914 5915 5915 5916 5917 5917 5917 5917 5917 5917 5916 5915 5914 5913 5912 5912 5911 5909 5908 5906 5904 5903 5901 5899 5898 5898 5896
5825 5827 5829 5831 5834 5836 5838 5841 5843 5846 5848 5851 5853 5856 5859 5861 5863 5866 5869 5871 5873 5874 5876 5878 5880 5882 5884 5886 5887 5888 5889 5890 5890 5891 5892 5892 5892 5893 5894 5895 5897 5898 5899 5900 5902 5903 5904 5905 5905 5906 5907 5907 5907 5908 5909 5910 5911 5912 5913 5913 5914 5914 5915 5914 5914 5915 5915 5914 5913 5912 5911 5909 5908 5908 5907 5905 5904 5902 5899 5898 5897 5895 5893 5892 5889
5823 5825 5827 5829 5832 5834 5836 5839 5841 5843 5845 5847 5849 5852 5855 5857 5860 5864 5866 5867 5868 5870 5873 5875 5877 5879 5881 5883 5884 5885 5886 5886 5887 5888 5889 5889 5889 5890 5890 5892 5894 5895 5896 5897 5899 5900 5901 5902 5902 5903 5904 5904 5905 5906 5907 5908 5909 5910 5910 5910 5911 5911 5911 5911 5911 5912 5911 5910 5909 5908 5907 5905 5904 5903 5902 5900 5899 5897 5895 5893 5892 5890 5888 5885 5882
5821 5823 5826 5828 5830 5833 5835 5837 5839 5841 5843 5844 5846 5848 5851 5854 5857 5860 5861 5863 5865 5867 5870 5872 5874 5876 5878 5880 5881 5882 5883 5883 5884 5885 5885 5886 5887 5887 5888 5889 5891 5892 5893 5895 5896 5897 5898 5899 5899 5900 5900 5901 5902 5903 5904 5905 5906 5907 5907 5907 5907 5907 5907 5907 5907 5907 5906 5905 5904 5903 5902 5901 5900 5898 5897 5895 5894 5892 5890 5888 5886 5884 5882 5879 5875
5818 5821 5823 5826 5829 5831 5833 5835 5836 5838 5840 5842 5844 5846 5848 5851 5853 5855 5857 5859 5861 5864 5866 5868 5870 5872 5874 5876 5878 5879 5880 5880 5881 5881 5882 5883 5884 5885 5885 5886 5888 5889 5890 5892 5893 5894 5895 5896 5896 5897 5897 5898 5899 5900 5902 5902 5903 5903 5903 5903 5903 5903 5902 5902 5903 5903 5902 5901 5900 5899 5897 5896 5895 5893 5891 5890 5889 5888 5885 5883 5881 5878 5876 5873 5869
5815 5817 5820 5823 5826 5828 5830 5832 5834 5836 5838 5840 5842 5844 5846 5848 5850 5851 5853 5855 5857 5859 5861 5864 5866 5868 5870 5872 5874 5875 5877 5877 5878 5878 5879 5881 5882 5882 5883 5884 5885 5886 5888 5889 5890 5891 5892 5892 5893 5893 5894 5895 5897 5898 5899 5899 5900 5899 5899 5899 5899 5898 5898 5897 5897 5897 5897 5896 5895 5894 5892 5891 5889 5888 5886 5885 5883 5882 5879 5877 5875 5873 5869 5866 5863
5812 5814 5817 5820 5822 5824 5827 5829 5831 5833 5835 5837 5839 5842 5844 5846 5847 5849 5850 5852 5853 5855 5857 5859 5861 5863 5865 5867 5869 5871 5873 5874 5875 5875 5876 5877 5879 5879 5880 5881 5882 5884 5885 5886 5887 5887 5888 5889 5889 5889 5891 5893 5894 5895 5895 5896 5896 5896 5895 5895 5895 5894 5893 5893 5892 5892 5891 5890 5889 5888 5887 5886 5884 5883 5881 5879 5877 5875 5873 5871 5869 5866 5863 5859 5856
5808 5811 5814 5816 5818 5820 5823 5826 5828 5831 5833 5835 5837 5839 5841 5843 5845 5846 5848 5849 5851 5852 5854 5856 5858 5859 5861 5862 5864 5866 5868 5869 5871 5872 5873 5874 5875 5876 5877 5878 5879 5881 5882 5883 5884 5884 5885 5886 5886 5886 5888 5890 5891 5891 5891 5892 5891 5891 5891 5891 5890 5890 5889 5888 5888 5887 5886 5885 5884 5883 5882 5880 5878 5876 5874 5873 5871 5869 5867 5865 5862 5859 5856 5852 5848
5804 5806 5809 5811 5814 5816 5819 5822 5825 5827 5829 5832 5834 5836 5838 5840 5842 5844 5845 5846 5848 5849 5851 5852 5854 5855 5857 5858 5860 5861 5862 5864 5867 5868 5870 5870 5871 5873 5874 5876 5877 5878 5879 5880 5881 5881 5882 5882 5882 5883 5884 5885 5886 5887 5887 5887 5887 5887 5886 5886 5885 5885 5884 5883 5882 5881 5880 5879 5878 5877 5875 5873 5871 5870 5868 5866 5864 5862 5860 5857 5854 5851 5847 5844 5840
5799 5801 5804 5806 5809 5812 5815 5818 5821 5824 5826 5828 5830 5833 5835 5837 5839 5841 5842 5843 5845 5846 5848 5849 5850 5852 5853 5854 5855 5856 5858 5860 5862 5864 5866 5867 5868 5870 5871 5872 5873 5874 5875 5876 5877 5878 5878 5879 5879 5880 5880 5881 5882 5882 5882 5882 5882 5882 5882 5881 5880 5880 5879 5878 5877 5876 5875 5873 5872 5870 5869 5867 5865 5863 5862 5860 5858 5856 5852 5849 5846 5843 5839 5836 5832
5794 5797 5800 5802 5805 5808 5811 5813 5816 5819 5822 5825 5827 5829 5831 5833 5835 5837 5839 5840 5842 5843 5844 5846 5847 5849 5849 5850 5851 5852 5854 5856 5858 5860 5861 5863 5864 5866 5867 5868 5869 5870 5871 5872 5873 5874 5875 5875 5875 5875 5876 5876 5877 5877 5877 5877 5877 5877 5877 5876 5875 5875 5874 5873 5872 5871 5869 5868 5866 5865 5863 5861 5859 5858 5856 5854 5851 5849 5846 5843 5839 5836 5832 5829 5825
5792 5794 5796 5798 5801 5803 5807 5810 5812 5815 5818 5821 5823 5825 5827 5829 5831 5833 5835 5837 5838 5840 5841 5842 5844 5845 5846 5847 5848 5849 5851 5852 5854 5855 5857 5858 5860 5861 5862 5863 5865 5866 5867 5868 5869 5870 5871 5871 5871 5871 5872 5872 5872 5872 5872 5872 5872 5872 5871 5871 5870 5870 5869 5868 5867 5865 5864 5862 5861 5859 5857 5856 5854 5852 5850 5847 5845 5842 5839 5836 5832 5829 5825 5822 5819